Tracking 30995 objects as of 7-Jul-2025
HD Live streaming from Space Station
objects crossing your sky now

FENGYUN 1C DEB

Track FENGYUN 1C DEB now!
10-day predictions


NORAD ID: 30403
Int'l Code: 1999-025ADS
Perigee: 774.6 km
Apogee: 891.4 km
Inclination: 99.1 °
Period: 101.4 minutes
Semi major axis: 7204 km
RCS: 0.0223 m2 (small)
Launch date: May 10, 1999
Source: People's Republic of China (PRC)
Launch site: Taiyaun Space Center, China (TSC)

Note: This is SATELLITE DEBRIS
Your satellite tracking list
TITAN 34B AGENA D DEB
Track 1 satellite(s)




NASA's NSSDC Master Catalog

Two Line Element Set (TLE):
1 30403U 99025ADS 25187.13280585  .00003428  00000-0  15848-2 0  9995
2 30403  99.0658 261.5823 0081038 118.3128 242.6253 14.19841399945405
Source of the keplerian elements: AFSPC